Location: ??????
(33.3472°N, 35.4764°E)
Time: 00:49:23
(UTC+00:00)

SL-16 R/B - Pass Details

Date: 21 August 2019
Orbit: 842 x 848 km, 71.0° (Epoch: 20 September)

Event Time Altitude Azimuth Distance (km) Brightness Sun altitude
Rises 01:22:25 0° 331° (NNW) 3,405 5.4 -20.4°
Reaches altitude 10° 01:24:58 10° 325° (NW) 2,467 4.6 -19.9°
Maximum altitude 01:30:16 43° 255° (WSW) 1,175 2.5 -19.0°
Enters shadow 01:34:55 13° 188° (S) 2,231 4.1 -18.1°
